User: anonymous   Login
Location: Unspecified
(0.0000°N, 0.0000°E)
Time: 06:44:55
(UTC+01:00)
Language:

Cosmos 1315 Rocket - Orbit

View from above orbital plane
View from above orbital plane
View from above satellite
View from above satellite

Ground track
Ground track

The orbit data is extracted from the following two-line orbital elements,

1 12904U 81103B   15025.92025294  .00001902  00000-0  13648-3 0  6821
2 12904 081.1776 191.9799 0029816 057.1834 303.2252 15.03524741361501
Epoch (UTC): 25 January 2015 22:05:09
Eccentricity: 0.0029816
inclination: 81.1776°
perigee height: 535 km
apogee height: 577 km
right ascension of ascending node: 191.9799°
argument of perigee: 57.1834°
revolutions per day: 15.03524741
mean anomaly at epoch: 303.2252°
orbit number at epoch: 36150

The dashed part of the orbit path shows where the satellite is in the earth's shadow,  

DLR